Location: Oriwa
(40.7500°S, 175.3333°E)
Time: 14:10:41
(UTC+00:00)

Cosmos 1455 - Pass Details

Date: 03 February 2023
Orbit: 480 x 502 km, 82.5° (Epoch: 30 March)

Event Time Altitude Azimuth Distance (km) Brightness Sun altitude
Rises 16:42:06 0° 184° (S) 2,586 6.1 -8.7°
Reaches altitude 10° 16:44:15 10° 180° (S) 1,694 5.2 -8.4°
Maximum altitude 16:47:55 61° 99° (E) 562 2.7 -7.8°
Drops below altitude 10° 16:51:32 10° 18° (NNE) 1,668 4.7 -7.2°
Sets 16:53:38 0° 14° (NNE) 2,541 5.6 -6.8°
